Regional Weather Roundup
Issued by NWS Portland, ME

Current Version | Previous Version | Text Only | Print | Product List | Glossary On
Versions: 1 2 3 4 5 6 7 8 9 10 11 12 13 14 15 16 17 18 19 20 21 22 23 24 25 26 27 28 29 30 31 32 33 34 35 36 37 38 39 40 41 42 43 44 45 46 47 48 49 50
000
ASUS41 KGYX 301210
RWRGYX
WEATHER ROUNDUP FOR MAINE AND NEW HAMPSHIRE
NATIONAL WEATHER SERVICE GRAY ME
800 AM EDT FRI SEP 30 2022

MEZ002-005-006-010-012-015-018-020-021-024-026-027-029-301300-
MAINE

CITY           SKY/WX    TMP DP  RH WIND       PRES   REMARKS
PORTLAND       MOSUNNY   42  40  92 W5        30.40S
6HR MIN TEMP:  36; 6HR MAX TEMP:  44;

SANFORD        MOSUNNY   40  40 100 CALM      30.40S
BAR HARBOR     SUNNY     43  41  93 CALM      30.38S
WISCASSET      SUNNY     40  37  89 CALM      30.41S
6HR MIN TEMP:  34; 6HR MAX TEMP:  40;

ROCKLAND       SUNNY     44  40  85 W5        30.39R
FRYEBURG       SUNNY     36  35  96 CALM      30.41S
6HR MIN TEMP:  30; 6HR MAX TEMP:  36;

LEWISTONAUBURN SUNNY     37  37 100 CALM      30.41R
AUGUSTA        SUNNY     43  38  82 CALM      30.40R
6HR MIN TEMP:  37; 6HR MAX TEMP:  43;

WATERVILLE     SUNNY     38  38 100 CALM      30.37R
BANGOR         MOSUNNY   43  39  86 CALM      30.39R
6HR MIN TEMP:  34; 6HR MAX TEMP:  43;

GREENVILLE     NOT AVBL
MILLINOCKET    SUNNY     42  40  92 CALM      30.36S
6HR MIN TEMP:  34; 6HR MAX TEMP:  43;

HOULTON        SUNNY     38  37  97 CALM      30.33F
6HR MIN TEMP:  31; 6HR MAX TEMP:  38;

PRESQUE ISLE   SUNNY     39  38  96 SW5       30.34S
6HR MIN TEMP:  30; 6HR MAX TEMP:  39;

FRENCHVILLE    SUNNY     39  35  86 CALM      30.30R
6HR MIN TEMP:  35; 6HR MAX TEMP:  39;

CARIBOU        SUNNY     38  35  89 SW3       30.31F
6HR MIN TEMP:  32; 6HR MAX TEMP:  38;

$$

NHZ002-005-008-009-011-012-014-301300-
NEW HAMPSHIRE

CITY           SKY/WX    TMP DP  RH WIND       PRES   REMARKS
PORTSMOUTH     PTSUNNY   44  40  86 NW3       30.39S
ROCHESTER      MOSUNNY   42  39  89 NW5       30.39S
6HR MIN TEMP:  38; 6HR MAX TEMP:  44;

NASHUA         PTSUNNY   42  42 100 NW5       30.41S
MANCHESTER     PTSUNNY   44  39  82 NW6       30.39S
6HR MIN TEMP:  42; 6HR MAX TEMP:  46;

CONCORD        MOSUNNY   36  35  96 CALM      30.41S
6HR MIN TEMP:  32; 6HR MAX TEMP:  37;

LACONIA        SUNNY     40  40 100 CALM      30.41S
BERLIN         CLOUDY    32  30  92 CALM      30.41S FOG
6HR MIN TEMP:  30; 6HR MAX TEMP:  32;

WHITEFIELD     FOG       31  31 100 CALM      30.42R VSB 1/4
6HR MIN TEMP:  30; 6HR MAX TEMP:  32;

JAFFREY        MOSUNNY   37  34  89 CALM      30.39S
6HR MIN TEMP:  35; 6HR MAX TEMP:  38;

KEENE          CLOUDY    35  35 100 CALM        N/A
LEBANON        FOG       39  37  92 N5        30.42S VSB 1/4
6HR MIN TEMP:  35; 6HR MAX TEMP:  40;

MT WASHINGTON  NOT AVBL
$$

VTZ005-007-008-301300-
VERMONT

CITY           SKY/WX    TMP DP  RH WIND       PRES   REMARKS
ST JOHNSBURY     N/A     34  33  96 MISG      30.41R
MONTPELIER     FOG       36  32  85 MISG      30.44S VSB 1/4
BURLINGTON     MOSUNNY   41  38  89 CALM      30.41S
$$

MAZ007-012-024-CTZ003-RIZ002-NYZ038-NYZ072-301300-
SOUTHERN NEW ENGLAND AND NY

CITY           SKY/WX    TMP DP  RH WIND       PRES   REMARKS
BOSTON         PTSUNNY   50  43  77 N9        30.38S
WORCESTER      PTSUNNY   46  38  73 N8        30.37R
NANTUCKET      PTSUNNY   60  52  74 NE12      30.32R
PROVIDENCE     PTSUNNY   48  43  82 N7        30.37R
HARTFORD       PTSUNNY   44  39  82 N6        30.39R
ALBANY         PTSUNNY   43  41  93 CALM      30.41R
NEW YORK CITY  PTSUNNY   53  39  59 NE13      30.34S
$$

ANZ081-ANZ082-ANZ150-NHZ014-MEZ023>029-301300-
COASTAL MARINE OBSERVATIONS

STATION/POSITION TIME  TEMP    WIND        PRES    WAVE
                       AIR SEA DIR/SP/G            HT/PER
                 (UTC) (F)     (DEG/KT/KT) (MB)    (FT/S)
MOUNT DESERT ROC 1200   51      10/ 10/ 11 1028.0S
MATINICUS ROCK   1100   51      30/ 10/ 11 1028.7R
ISLE OF SHOALS   1100   50      20/ 11/ 12 1028.3R
JEFFREYS LEDGE   1156      58                N/A     3/10
CASHES LEDGE BUO 1150   54 57   30/ 10/ 10 1028.0F   3/10
GEORGES BANK BUO 1150      61              1025.5R   4/ 5
$$

.............KEY..............
   WCI - WIND CHILL
   TC  - TEMPERATURE IN CELSIUS
   VSB - VISIBILITY IN MILES
   HX  - HEAT INDEX
   FAIR- INDICATES FEW OR NO CLOUDS BELOW 12,000 FT, WITH NO
         SIGNIFICANT WEATHER AND/OR OBSTRUCTIONS TO VISIBILITY.





USA.gov is the U.S. government's official web portal to all federal, state and local government web resources and services.